User: anonymous   Login
Location: Unspecified
(0.0000°N, 0.0000°E)
Time: 20:14:01
(UTC+00:00)
Language:

OBJECT G - Orbit

View from above orbital plane
View from above orbital plane
View from above satellite
View from above satellite

Ground track
Ground track

The orbit data is extracted from the following two-line orbital elements,

1 43186U 18014G   18351.29598389  .00000721  00000-0  68465-4 0  9990
2 43186  97.7178 257.3091 0009413 257.9649 102.0518 14.96552526 47709
Epoch (UTC): 17 December 2018 07:06:13
Eccentricity: 0.0009413
inclination: 97.7178°
perigee height: 571 km
apogee height: 584 km
right ascension of ascending node: 257.3091°
argument of perigee: 257.9649°
revolutions per day: 14.96552526
mean anomaly at epoch: 102.0518°
orbit number at epoch: 4770

The dashed part of the orbit path shows where the satellite is in the earth's shadow,  

DLR